VA3PPY Weather Reports


time (UTC)temp
C
wind
direction
speed
KPH
gust
KPH
rain 1hr
cm
rain 24hr
cm
rain mn
cm
humidity
%
barometer
mb
20260904131509 18 294 0.0 0.0 0.00 0.71 0.00 97 1014.1
20260904130012 18 294 0.0 0.0 0.00 0.71 0.00 97 1014.1
20260904124509 18 294 0.0 0.0 0.00 0.71 0.00 97 1014.1
20260904123009 18 294 0.0 0.0 0.00 0.71 0.00 97 1014.4
20260904121508 18 294 0.0 0.0 0.00 0.71 0.00 98 1014.4
20260904120011 18 294 0.0 0.0 0.00 0.71 0.00 98 1014.2
20260904114509 18 294 0.0 0.0 0.00 0.71 0.00 97 1013.8
20260904113010 18 294 0.0 0.0 0.00 0.71 0.00 97 1013.9
20260904111509 17 294 0.0 0.0 0.00 0.71 0.00 97 1013.8
20260904110010 17 294 0.0 0.0 0.00 0.71 0.00 97 1013.6
20260904104510 17 294 0.0 0.0 0.00 0.71 0.00 97 1013.4
20260904103010 17 294 0.0 0.0 0.00 0.71 0.00 97 1013.2
20260904101512 18 294 0.0 3.2 0.00 0.71 0.00 97 1013.0
20260904100010 17 294 0.0 0.0 0.00 0.71 0.00 97 1013.0
20260904094513 17 294 0.0 0.0 0.00 0.71 0.00 97 1013.3
20260904093027 17 294 0.0 0.0 0.00 0.71 0.00 97 1013.4
20260904091510 17 294 0.0 0.0 0.00 0.71 0.00 97 1013.5
20260904090010 17 294 0.0 0.0 0.00 0.71 0.00 97 1013.3
20260904084510 18 294 0.0 0.0 0.00 0.71 0.00 97 1013.4
20260904083010 17 294 0.0 0.0 0.00 0.71 0.00 97 1013.6
20260904081511 17 294 0.0 0.0 0.00 0.71 0.00 97 1013.3
20260904080010 18 294 0.0 0.0 0.00 0.71 0.00 97 1012.9
20260904074512 18 294 0.0 0.0 0.00 0.71 0.00 97 1013.1
20260904073032 18 294 0.0 0.0 0.00 0.71 0.00 97 1013.5
20260904071510 18 294 0.0 0.0 0.00 0.71 0.00 97 1013.7
20260904070011 18 294 0.0 0.0 0.00 0.71 0.00 97 1013.9
20260904064517 18 294 0.0 0.0 0.00 0.71 0.00 97 1014.1
20260904063011 18 294 0.0 0.0 0.00 0.71 0.00 97 1014.1
20260904061512 18 294 0.0 0.0 0.00 0.71 0.00 97 1014.0
20260904060011 18 294 0.0 0.0 0.00 0.71 0.00 97 1013.9
20260904054513 18 294 0.0 0.0 0.00 0.76 0.00 97 1014.1
20260904053011 18 294 0.0 0.0 0.00 0.76 0.00 97 1014.1
20260904051515 18 294 0.0 3.2 0.00 0.76 0.00 97 1014.2
20260904050011 19 294 0.0 1.6 0.00 0.76 0.00 97 1014.4
20260904044511 18 45 0.0 0.0 0.00 0.76 0.00 97 1014.2
20260904043011 18 45 0.0 0.0 0.00 0.76 0.00 97 1014.2
20260904041511 18 45 0.0 0.0 0.00 0.76 0.00 97 1014.0
20260904040011 18 45 0.0 0.0 0.00 0.76 0.00 97 1013.9
20260904034511 19 45 0.0 0.0 0.00 0.76 0.76 97 1013.7
20260904033016 19 45 0.0 0.0 0.00 0.76 0.76 97 1013.6
20260904031511 20 45 0.0 0.0 0.00 0.76 0.76 97 1013.6
20260904030011 19 45 0.0 0.0 0.00 0.76 0.76 97 1013.6
20260904024511 19 45 0.0 0.0 0.00 0.76 0.76 97 1013.5
20260904023011 19 45 0.0 0.0 0.00 0.76 0.76 97 1013.4
20260904021512 19 45 0.0 0.0 0.00 0.76 0.76 97 1013.5
20260904020011 19 45 0.0 0.0 0.00 0.76 0.76 97 1013.3
20260904014512 18 45 0.0 0.0 0.00 0.84 0.76 97 1013.4
20260904013016 18 45 0.0 0.0 0.00 0.84 0.76 97 1013.3
20260904011514 18 45 0.0 0.0 0.00 0.84 0.76 97 1013.3
20260904010012 18 45 0.0 0.0 0.00 0.84 0.76 96 1013.0
20260904004512 19 45 0.0 0.0 0.00 1.17 0.76 96 1012.5
20260904003012 19 45 0.0 0.0 0.00 1.17 0.76 96 1012.2
20260904001512 19 45 0.0 0.0 0.00 1.17 0.76 96 1012.3
20260904000012 20 45 0.0 0.0 0.00 1.17 0.76 96 1012.2
20260903234512 20 45 0.0 1.6 0.00 1.19 0.76 96 1012.2
20260903233013 20 45 0.0 0.0 0.00 1.19 0.76 96 1012.3
20260903231513 20 45 0.0 0.0 0.00 1.19 0.76 96 1012.4
20260903230025 20 45 0.0 0.0 0.00 1.19 0.76 96 1012.1
20260903224512 20 45 0.0 3.2 0.00 1.22 0.76 96 1012.0
20260903223012 20 45 0.0 3.2 0.00 1.22 0.76 96 1010.8
20260903221515 20 45 1.6 4.8 0.05 1.22 0.76 96 1010.6
20260903220012 20 321 1.6 8.0 0.18 1.22 0.76 96 1011.4
20260903214528 21 319 3.2 9.7 0.30 1.52 0.76 96 1012.0
20260903213019 21 300 0.0 1.6 0.36 1.52 0.76 96 1011.8
20260903211512 21 300 0.0 8.0 0.51 1.45 0.71 96 1012.1
20260903210013 21 338 1.6 8.0 0.53 1.35 0.58 96 1013.3
20260903204513 21 313 1.6 9.7 0.43 1.22 0.46 95 1013.7
20260903203012 21 291 1.6 8.0 0.38 1.17 0.41 95 1013.1
20260903201512 22 278 1.6 6.4 0.18 0.97 0.20 95 1013.9
20260903200013 22 255 0.0 4.8 0.03 0.81 0.05 95 1013.9
20260903194513 22 254 0.0 4.8 0.00 0.79 0.03 94 1011.9
20260903193014 22 254 0.0 3.2 0.00 0.79 0.03 93 1011.8
20260903191513 22 254 0.0 6.4 0.00 0.79 0.03 93 1011.4
20260903190014 22 254 0.0 4.8 0.00 0.79 0.03 93 1011.8
20260903184513 22 253 0.0 3.2 0.00 0.79 0.03 93 1011.9
20260903183013 22 253 0.0 6.4 0.00 0.79 0.03 93 1012.1
20260903181517 22 253 0.0 9.7 0.00 0.79 0.03 92 1012.2
20260903180035 23 253 1.6 9.7 0.00 0.79 0.03 91 1012.7
20260903174514 23 253 1.6 9.7 0.00 0.79 0.03 90 1013.0
20260903173013 24 253 0.0 3.2 0.00 0.79 0.03 88 1012.7
20260903171514 25 253 1.6 4.8 0.00 0.79 0.03 86 1013.0
20260903170020 25 253 0.0 9.7 0.00 0.79 0.03 88 1012.8
20260903164514 25 253 0.0 4.8 0.00 0.79 0.03 89 1012.9
20260903163013 25 253 0.0 4.8 0.00 0.79 0.03 90 1013.0
20260903161516 23 253 1.6 9.7 0.00 0.79 0.03 92 1013.1
20260903160014 23 149 3.2 9.7 0.00 0.79 0.03 93 1013.2
20260903154514 22 148 1.6 8.0 0.00 0.79 0.03 94 1012.9
20260903153014 22 146 0.0 4.8 0.00 0.79 0.03 94 1012.7
20260903151514 22 146 0.0 9.7 0.00 0.79 0.03 95 1012.5
20260903150015 22 146 1.6 6.4 0.00 0.79 0.03 95 1012.3
20260903144520 22 146 1.6 6.4 0.00 0.79 0.03 96 1012.4
20260903143015 22 146 0.0 6.4 0.00 0.79 0.03 96 1012.6
20260903141521 22 146 0.0 4.8 0.00 0.79 0.03 97 1012.5
20260903140014 22 146 0.0 3.2 0.00 0.79 0.03 97 1012.4
20260903134514 22 146 0.0 3.2 0.00 0.79 0.03 97 1012.6
20260903133015 21 146 0.0 4.8 0.00 0.79 0.03 97 1012.5